| time (UTC) | temp F | wind direction | speed MPH | gust MPH | rain 1hr in | rain 24hr in | rain mn in | humidity % | barometer mb |
| 20260906193038 | 55 | 151 | 0.0 | 2.0 | 0.00 | 0.24 | 0.21 | 89 | 1018.9 |
| 20260906191535 | 55 | 152 | 0.0 | 0.0 | 0.00 | 0.24 | 0.21 | 89 | 1018.9 |
| 20260906184608 | 53 | 149 | 0.0 | 2.0 | 0.00 | 0.24 | 0.21 | 93 | 1018.9 |
| 20260906181535 | 52 | 135 | 0.0 | 2.0 | 0.00 | 0.24 | 0.21 | 97 | 1019.0 |
| 20260906180035 | 52 | 47 | 0.0 | 2.0 | 0.00 | 0.24 | 0.21 | 97 | 1018.9 |
| 20260906174531 | 52 | 22 | 0.0 | 1.0 | 0.02 | 0.24 | 0.21 | 98 | 1018.9 |
| 20260906170032 | 53 | 7 | 3.0 | 6.0 | 0.02 | 0.24 | 0.19 | 98 | 1018.8 |
| 20260906164538 | 53 | 357 | 2.0 | 5.0 | 0.00 | 0.22 | 0.19 | 98 | 1018.7 |
| 20260906163033 | 53 | 35 | 2.0 | 6.0 | 0.00 | 0.22 | 0.19 | 98 | 1018.7 |
| 20260906161609 | 53 | 24 | 2.0 | 4.0 | 0.00 | 0.22 | 0.19 | 98 | 1018.7 |
| 20260906154642 | 52 | 44 | 2.0 | 4.0 | 0.03 | 0.22 | 0.19 | 98 | 1018.6 |
| 20260906153034 | 52 | 45 | 1.0 | 4.0 | 0.06 | 0.22 | 0.19 | 98 | 1018.5 |
| 20260906151534 | 52 | 149 | 0.0 | 3.0 | 0.06 | 0.23 | 0.18 | 98 | 1018.3 |
| 20260906150035 | 52 | 157 | 0.0 | 0.0 | 0.05 | 0.22 | 0.16 | 98 | 1018.1 |
| 20260906144536 | 52 | 128 | 0.0 | 3.0 | 0.03 | 0.20 | 0.13 | 98 | 1018.0 |
| 20260906143037 | 52 | 360 | 0.0 | 3.0 | 0.03 | 0.17 | 0.13 | 97 | 1017.6 |
| 20260906140034 | 52 | 130 | 0.0 | 2.0 | 0.04 | 0.17 | 0.13 | 97 | 1017.3 |
| 20260906134643 | 52 | 116 | 0.0 | 3.0 | 0.04 | 0.17 | 0.10 | 97 | 1017.3 |
| 20260906131533 | 52 | 128 | 0.0 | 2.0 | 0.00 | 0.13 | 0.09 | 97 | 1017.0 |
| 20260906130108 | 52 | 165 | 0.0 | 3.0 | 0.00 | 0.13 | 0.09 | 97 | 1017.2 |
| 20260906124536 | 52 | 154 | 0.0 | 1.0 | 0.00 | 0.13 | 0.09 | 97 | 1017.2 |
| 20260906123036 | 52 | 144 | 0.0 | 2.0 | 0.00 | 0.13 | 0.09 | 97 | 1017.3 |
| 20260906120033 | 52 | 157 | 0.0 | 2.0 | 0.00 | 0.13 | 0.09 | 96 | 1017.5 |
| 20260906114535 | 52 | 240 | 0.0 | 3.0 | 0.00 | 0.13 | 0.09 | 96 | 1017.5 |
| 20260906113033 | 52 | 185 | 2.0 | 4.0 | 0.00 | 0.13 | 0.09 | 96 | 1017.4 |
| 20260906104531 | 53 | 72 | 2.0 | 5.0 | 0.01 | 0.13 | 0.09 | 95 | 1017.7 |
| 20260906103034 | 53 | 139 | 1.0 | 6.0 | 0.03 | 0.13 | 0.09 | 95 | 1017.8 |
| 20260906101534 | 53 | 181 | 0.0 | 5.0 | 0.04 | 0.13 | 0.09 | 94 | 1018.0 |
| 20260906100034 | 53 | 126 | 1.0 | 5.0 | 0.07 | 0.13 | 0.08 | 93 | 1017.9 |
| 20260906094536 | 53 | 181 | 2.0 | 8.0 | 0.08 | 0.12 | 0.06 | 92 | 1017.9 |
| 20260906093034 | 53 | 193 | 4.0 | 10.0 | 0.06 | 0.10 | 0.05 | 91 | 1017.9 |
| 20260906091533 | 53 | 201 | 6.0 | 11.0 | 0.05 | 0.09 | 0.02 | 90 | 1017.8 |
| 20260906090034 | 54 | 188 | 6.0 | 11.0 | 0.02 | 0.06 | 0.00 | 89 | 1017.7 |
| 20260906084535 | 54 | 195 | 6.0 | 12.0 | 0.00 | 0.04 | 0.00 | 88 | 1018.0 |
| 20260906083035 | 54 | 191 | 3.0 | 8.0 | 0.00 | 0.04 | 0.00 | 88 | 1018.0 |
| 20260906081530 | 53 | 195 | 2.0 | 7.0 | 0.00 | 0.04 | 0.00 | 89 | 1017.9 |
| 20260906080034 | 54 | 197 | 3.0 | 5.0 | 0.00 | 0.04 | 0.00 | 88 | 1017.8 |
| 20260906074611 | 54 | 192 | 3.0 | 6.0 | 0.00 | 0.04 | 0.00 | 87 | 1017.9 |
| 20260906071532 | 54 | 131 | 1.0 | 5.0 | 0.00 | 0.04 | 0.00 | 87 | 1018.0 |
| 20260906070111 | 53 | 189 | 3.0 | 7.0 | 0.00 | 0.04 | 0.00 | 89 | 1018.2 |
| 20260906064613 | 53 | 126 | 1.0 | 3.0 | 0.00 | 0.04 | 0.04 | 89 | 1018.3 |
| 20260906063033 | 53 | 176 | 2.0 | 6.0 | 0.00 | 0.04 | 0.04 | 89 | 1018.3 |
| 20260906061534 | 54 | 201 | 3.0 | 7.0 | 0.00 | 0.04 | 0.04 | 87 | 1018.3 |
| 20260906060034 | 54 | 212 | 2.0 | 9.0 | 0.00 | 0.04 | 0.04 | 87 | 1018.4 |
| 20260906054533 | 54 | 196 | 3.0 | 9.0 | 0.00 | 0.06 | 0.04 | 88 | 1018.5 |
| 20260906053033 | 54 | 189 | 5.0 | 8.0 | 0.00 | 0.06 | 0.04 | 89 | 1018.5 |
| 20260906044535 | 55 | 172 | 4.0 | 10.0 | 0.00 | 0.06 | 0.04 | 88 | 1018.6 |
| 20260906043109 | 55 | 175 | 5.0 | 10.0 | 0.00 | 0.06 | 0.04 | 89 | 1018.6 |
| 20260906041532 | 56 | 185 | 5.0 | 10.0 | 0.00 | 0.06 | 0.04 | 90 | 1018.5 |
| 20260906040033 | 56 | 192 | 6.0 | 10.0 | 0.00 | 0.06 | 0.04 | 90 | 1018.5 |
| 20260906031544 | 55 | 186 | 4.0 | 6.0 | 0.00 | 0.06 | 0.04 | 88 | 1018.0 |
| 20260906031534 | 56 | 190 | 4.0 | 5.0 | 0.00 | 0.06 | 0.04 | 85 | 1018.0 |
| 20260906024537 | 57 | 189 | 4.0 | 7.0 | 0.00 | 0.06 | 0.04 | 83 | 1018.1 |
| 20260906023034 | 59 | 192 | 4.0 | 6.0 | 0.00 | 0.06 | 0.04 | 80 | 1018.0 |
| 20260906021640 | 61 | 202 | 4.0 | 7.0 | 0.00 | 0.06 | 0.04 | 77 | 1018.1 |
| 20260906020029 | 62 | 201 | 4.0 | 8.0 | 0.00 | 0.06 | 0.04 | 76 | 1018.1 |
| 20260906014529 | 64 | 207 | 3.0 | 5.0 | 0.00 | 0.06 | 0.04 | 73 | 1018.0 |
| 20260906013035 | 65 | 197 | 3.0 | 6.0 | 0.00 | 0.06 | 0.04 | 71 | 1018.1 |
| 20260906011532 | 66 | 199 | 3.0 | 5.0 | 0.00 | 0.06 | 0.04 | 69 | 1018.2 |
| 20260906010034 | 66 | 197 | 3.0 | 5.0 | 0.01 | 0.06 | 0.04 | 70 | 1018.3 |
| 20260906004537 | 65 | 200 | 2.0 | 4.0 | 0.01 | 0.06 | 0.04 | 72 | 1018.4 |
| 20260906003037 | 63 | 155 | 2.0 | 5.0 | 0.01 | 0.06 | 0.04 | 76 | 1018.5 |
| 20260906001535 | 62 | 157 | 2.0 | 6.0 | 0.01 | 0.06 | 0.03 | 81 | 1018.6 |
| 20260906000036 | 59 | 186 | 4.0 | 11.0 | 0.00 | 0.05 | 0.03 | 83 | 1018.7 |
| 20260905234535 | 59 | 203 | 6.0 | 13.0 | 0.02 | 0.05 | 0.03 | 83 | 1018.7 |
| 20260905233035 | 59 | 208 | 5.0 | 10.0 | 0.02 | 0.05 | 0.03 | 84 | 1018.5 |
| 20260905230032 | 62 | 212 | 5.0 | 12.0 | 0.02 | 0.05 | 0.01 | 71 | 1018.5 |
| 20260905224535 | 63 | 267 | 2.0 | 4.0 | 0.00 | 0.03 | 0.01 | 67 | 1018.4 |
| 20260905223034 | 64 | 306 | 1.0 | 4.0 | 0.00 | 0.03 | 0.01 | 66 | 1018.3 |
| 20260905221537 | 65 | 345 | 2.0 | 5.0 | 0.00 | 0.03 | 0.01 | 63 | 1018.2 |
| 20260905213038 | 65 | 229 | 0.0 | 4.0 | 0.00 | 0.03 | 0.01 | 65 | 1018.7 |
| 20260905203032 | 63 | 246 | 2.0 | 4.0 | 0.00 | 0.03 | 0.01 | 68 | 1018.9 |
| 20260905201611 | 62 | 218 | 2.0 | 4.0 | 0.00 | 0.03 | 0.01 | 69 | 1018.9 |
| 20260905200034 | 63 | 284 | 2.0 | 6.0 | 0.00 | 0.03 | 0.01 | 68 | 1019.0 |